DW4881 Weather Reports


time (UTC)temp
C
wind
direction
speed
KPH
gust
KPH
rain 1hr
cm
rain 24hr
cm
rain mn
cm
humidity
%
barometer
mb
20260505200103 16 155 0.0 9.7 0.00 0.00 0.00 74 1014.2
20260505195559 16 155 0.0 9.7 0.00 0.00 0.00 73 1014.3
20260505195059 16 153 0.0 8.0 0.00 0.00 0.00 73 1014.3
20260505194619 16 153 3.2 9.7 0.00 0.00 0.00 74 1014.3
20260505194059 16 153 3.2 9.7 0.00 0.00 0.00 74 1014.3
20260505193601 16 133 0.0 4.8 0.00 0.00 0.00 73 1014.3
20260505193057 16 133 1.6 4.8 0.00 0.00 0.00 73 1014.2
20260505192556 16 133 0.0 4.8 0.00 0.00 0.00 74 1014.3
20260505192055 16 133 0.0 4.8 0.00 0.00 0.00 73 1014.3
20260505191554 16 133 0.0 4.8 0.00 0.00 0.00 73 1014.3
20260505191053 16 133 1.6 8.0 0.00 0.00 0.00 74 1014.3
20260505190552 16 133 1.6 8.0 0.00 0.00 0.00 74 1014.3
20260505190052 16 95 0.0 4.8 0.00 0.00 0.00 74 1014.2
20260505185555 16 95 0.0 6.4 0.00 0.00 0.00 75 1014.2
20260505185051 15 92 0.0 6.4 0.00 0.00 0.00 76 1014.2
20260505184549 15 94 1.6 6.4 0.00 0.00 0.00 77 1014.3
20260505184048 15 93 0.0 3.2 0.00 0.00 0.00 76 1014.3
20260505183548 15 93 0.0 3.2 0.00 0.00 0.00 76 1014.3
20260505183047 15 93 0.0 4.8 0.00 0.00 0.00 76 1014.3
20260505182546 15 93 0.0 4.8 0.00 0.00 0.00 77 1014.3
20260505182048 15 93 1.6 6.4 0.00 0.00 0.00 78 1014.3
20260505181550 15 93 3.2 6.4 0.00 0.00 0.00 77 1014.3
20260505181045 14 93 0.0 3.2 0.00 0.00 0.00 78 1014.3
20260505180545 14 93 0.0 4.8 0.00 0.00 0.00 77 1014.2
20260505180045 14 93 0.0 4.8 0.00 0.00 0.00 77 1014.2
20260505175546 14 93 0.0 4.8 0.00 0.00 0.00 78 1014.2
20260505175044 14 93 1.6 4.8 0.00 0.00 0.00 78 1014.3
20260505174552 14 93 0.0 6.4 0.00 0.00 0.00 80 1014.3
20260505174044 13 93 0.0 6.4 0.00 0.00 0.00 79 1014.3
20260505173545 13 93 1.6 6.4 0.00 0.00 0.00 79 1014.3
20260505173043 13 93 1.6 6.4 0.00 0.00 0.00 79 1014.2
20260505172542 13 93 1.6 6.4 0.00 0.00 0.00 80 1014.2
20260505172042 13 93 0.0 4.8 0.00 0.00 0.00 80 1014.2
20260505171542 13 93 3.2 4.8 0.00 0.00 0.00 79 1014.1
20260505171044 13 93 0.0 4.8 0.00 0.00 0.00 80 1014.0
20260505170540 13 93 1.6 4.8 0.00 0.00 0.00 79 1014.0
20260505170040 13 93 1.6 4.8 0.00 0.00 0.00 80 1014.0
20260505165540 13 93 0.0 4.8 0.00 0.00 0.00 80 1013.9
20260505165041 13 93 1.6 4.8 0.00 0.00 0.00 80 1013.9
20260505164542 13 93 0.0 3.2 0.00 0.00 0.00 81 1013.9
20260505164041 13 93 0.0 4.8 0.00 0.00 0.00 80 1013.9
20260505163538 13 93 1.6 4.8 0.00 0.00 0.00 80 1013.9
20260505163048 13 93 0.0 1.6 0.00 0.00 0.00 81 1013.9
20260505162538 13 93 0.0 4.8 0.00 0.00 0.00 82 1013.9
20260505162037 13 93 0.0 4.8 0.00 0.00 0.00 82 1013.8
20260505161537 13 93 0.0 3.2 0.00 0.00 0.00 82 1013.8
20260505161037 13 93 0.0 4.8 0.00 0.00 0.00 82 1013.8
20260505160537 12 93 0.0 4.8 0.00 0.00 0.00 83 1013.7
20260505153035 12 93 1.6 6.4 0.00 0.00 0.00 85 1013.7
20260505152534 12 93 0.0 3.2 0.00 0.00 0.00 85 1013.7
20260505152033 12 93 0.0 3.2 0.00 0.00 0.00 85 1013.7
20260505151533 12 93 0.0 3.2 0.00 0.00 0.00 86 1013.6
20260505151035 12 93 0.0 3.2 0.00 0.00 0.00 86 1013.6
20260505150533 12 93 0.0 6.4 0.00 0.00 0.00 87 1013.6
20260505140525 12 93 0.0 0.0 0.00 0.00 0.00 84 1013.1
20260505125018 12 93 0.0 4.8 0.00 0.00 0.00 82 1012.6
20260505124517 12 93 1.6 3.2 0.00 0.00 0.00 82 1012.6
20260505124017 12 93 0.0 4.8 0.00 0.00 0.00 81 1012.6
20260505123518 12 93 1.6 4.8 0.00 0.00 0.00 82 1012.6
20260505123016 12 93 0.0 3.2 0.00 0.00 0.00 82 1012.5
20260505122515 12 93 0.0 4.8 0.00 0.00 0.00 82 1012.6
20260505122016 12 93 0.0 4.8 0.00 0.00 0.00 83 1012.5
20260505121515 12 93 0.0 3.2 0.00 0.00 0.00 82 1012.5
20260505121015 12 93 1.6 6.4 0.00 0.00 0.00 82 1012.5
20260505120514 12 93 1.6 6.4 0.00 0.00 0.00 82 1012.5
20260505120015 12 93 0.0 6.4 0.00 0.00 0.00 82 1012.5
20260505115513 12 93 0.0 4.8 0.00 0.00 0.00 82 1012.5
20260505115013 12 93 0.0 4.8 0.00 0.00 0.00 82 1012.5
20260505114512 12 93 0.0 6.4 0.00 0.00 0.00 82 1012.5
20260505114013 12 93 1.6 6.4 0.00 0.00 0.00 82 1012.5
20260505113511 12 93 0.0 4.8 0.00 0.00 0.00 82 1012.4
20260505113011 12 93 1.6 4.8 0.00 0.00 0.00 82 1012.4
20260505112514 12 93 1.6 4.8 0.00 0.00 0.00 82 1012.4
20260505112011 12 93 0.0 3.2 0.00 0.00 0.00 82 1012.4
20260505111513 12 93 0.0 4.8 0.00 0.00 0.00 82 1012.3
20260505111011 12 93 0.0 4.8 0.00 0.00 0.00 82 1012.3
20260505110510 12 93 0.0 6.4 0.00 0.00 0.00 82 1012.3
20260505102003 13 93 0.0 3.2 0.00 0.00 0.00 79 1011.8
20260505101504 12 93 0.0 4.8 0.00 0.00 0.00 81 1011.8
20260505101003 12 93 1.6 4.8 0.00 0.00 0.00 81 1011.9
20260505100504 12 93 0.0 4.8 0.00 0.00 0.00 81 1011.9
20260505100003 12 93 0.0 3.2 0.00 0.00 0.00 81 1011.9
20260505095503 12 93 0.0 3.2 0.00 0.00 0.00 81 1011.8
20260505095004 12 93 0.0 3.2 0.00 0.00 0.00 81 1011.9
20260505094503 12 93 0.0 6.4 0.00 0.00 0.00 81 1011.8
20260505094002 13 93 0.0 6.4 0.00 0.00 0.00 80 1011.9
20260505093500 13 93 1.6 6.4 0.00 0.00 0.00 81 1011.8
20260505093108 13 93 0.0 4.8 0.00 0.00 0.00 81 1011.7
20260505092558 13 93 0.0 4.8 0.00 0.00 0.00 80 1011.6
20260505092058 13 93 1.6 6.4 0.00 0.00 0.00 80 1011.6
20260505091557 13 93 1.6 6.4 0.00 0.00 0.00 79 1011.6
20260505091056 13 93 1.6 6.4 0.00 0.00 0.00 79 1011.5
20260505090556 13 93 0.0 4.8 0.00 0.00 0.00 79 1011.5
20260505090057 13 93 1.6 4.8 0.00 0.00 0.00 79 1011.4
20260505085555 13 93 0.0 1.6 0.00 0.00 0.00 79 1011.5
20260505085055 13 93 0.0 3.2 0.00 0.00 0.00 79 1011.4
20260505084554 13 93 0.0 4.8 0.00 0.00 0.00 80 1011.3
20260505084053 13 93 0.0 4.8 0.00 0.00 0.00 80 1011.3
20260505083553 13 93 1.6 4.8 0.00 0.00 0.00 80 1011.3
20260505083054 13 93 0.0 6.4 0.00 0.00 0.00 80 1011.3
20260505082553 13 93 1.6 6.4 0.00 0.00 0.00 79 1011.2
20260505082053 13 93 3.2 9.7 0.00 0.00 0.00 80 1011.3
20260505081603 13 93 3.2 9.7 0.00 0.00 0.00 80 1011.3
20260505081053 13 93 3.2 9.7 0.00 0.00 0.00 80 1011.3
20260505080554 13 93 0.0 4.8 0.00 0.00 0.00 80 1011.2
20260505080059 13 93 0.0 1.6 0.00 0.00 0.00 80 1011.1
20260505075554 13 93 0.0 3.2 0.00 0.00 0.00 80 1011.1
20260505075051 13 93 0.0 3.2 0.00 0.00 0.00 80 1011.1
20260505074549 13 93 0.0 4.8 0.00 0.00 0.00 80 1011.0
20260505074049 13 93 0.0 6.4 0.00 0.00 0.00 79 1010.9
20260505073548 13 93 3.2 6.4 0.00 0.00 0.00 79 1010.9
20260505073050 13 93 0.0 3.2 0.00 0.00 0.00 79 1010.7
20260505072547 13 93 0.0 4.8 0.00 0.00 0.00 79 1010.7
20260505072048 13 93 1.6 9.7 0.00 0.00 0.00 79 1010.6
20260505071551 14 93 1.6 9.7 0.00 0.00 0.00 78 1010.6
20260505071042 14 117 3.2 9.7 0.00 0.00 0.00 78 1010.5
20260505070545 14 120 1.6 6.4 0.00 0.00 0.00 78 1010.5
20260505070040 14 120 1.6 6.4 0.00 0.00 0.00 78 1010.5
20260505065539 15 120 1.6 9.7 0.00 0.00 0.00 78 1010.5
20260505065039 15 120 1.6 9.7 0.00 0.00 0.00 77 1010.3
20260505064541 15 126 3.2 9.7 0.00 0.00 0.00 77 1010.3
20260505064038 15 109 3.2 9.7 0.00 0.00 0.00 76 1010.2
20260505063538 15 131 1.6 8.0 0.00 0.00 0.00 76 1010.1
20260505063038 15 131 0.0 6.4 0.00 0.00 0.00 75 1010.0
20260505062539 16 131 3.2 6.4 0.00 0.00 0.00 75 1010.0
20260505062038 16 130 1.6 8.0 0.00 0.00 0.00 75 1009.8
20260505061538 16 130 1.6 8.0 0.00 0.00 0.00 75 1009.8
20260505061037 16 128 1.6 8.0 0.00 0.00 0.00 75 1009.7
20260505060541 16 128 3.2 8.0 0.00 0.00 0.00 74 1009.6
20260505060037 16 128 0.0 6.4 0.00 0.00 0.00 74 1009.5
20260505055539 16 128 1.6 8.0 0.00 0.00 0.00 74 1009.6
20260505055037 17 128 3.2 8.0 0.00 0.00 0.00 73 1009.5
20260505054549 17 116 0.0 6.4 0.00 0.00 0.00 73 1009.4
20260505054037 17 115 0.0 4.8 0.00 0.00 0.00 74 1009.5
20260505053536 17 115 1.6 4.8 0.00 0.00 0.00 73 1009.4
20260505053052 17 115 0.0 3.2 0.00 0.00 0.00 73 1009.4
20260505052536 17 115 0.0 9.7 0.00 0.00 0.00 73 1009.3
20260505052038 17 115 1.6 9.7 0.00 0.00 0.00 73 1009.2
20260505051541 17 139 3.2 6.4 0.00 0.00 0.00 72 1009.2
20260505051036 17 161 0.0 4.8 0.00 0.00 0.00 72 1009.2
20260505050536 18 161 3.2 6.4 0.00 0.00 0.00 71 1009.2
20260505041536 20 161 0.0 0.0 0.00 0.00 0.00 68 1008.6
20260505041034 20 161 0.0 0.0 0.00 0.00 0.00 69 1008.5
20260505040537 20 161 0.0 3.2 0.00 0.00 0.00 68 1008.5
20260505040041 20 161 0.0 3.2 0.00 0.00 0.00 68 1008.5
20260505035535 20 161 0.0 3.2 0.00 0.00 0.00 68 1008.4
20260505035035 20 161 0.0 3.2 0.00 0.00 0.00 68 1008.3
20260505034533 21 161 0.0 4.8 0.00 0.00 0.00 68 1008.2
20260505034033 21 161 1.6 8.0 0.00 0.00 0.00 67 1008.1
20260505033533 21 167 1.6 8.0 0.00 0.00 0.00 67 1008.1
20260505033040 21 172 1.6 6.4 0.00 0.00 0.00 67 1007.9
20260505032532 21 168 0.0 4.8 0.00 0.00 0.00 67 1007.9
20260505032032 21 168 0.0 6.4 0.00 0.00 0.00 67 1007.7
20260505031533 21 168 1.6 6.4 0.00 0.00 0.00 67 1007.7
20260505031032 21 175 1.6 11.3 0.00 0.00 0.00 66 1007.7
20260505030534 22 173 3.2 11.3 0.00 0.00 0.00 67 1007.6
20260505030033 22 161 3.2 11.3 0.00 0.00 0.00 67 1007.6
20260505025533 22 160 3.2 11.3 0.00 0.00 0.00 66 1007.5
20260505025031 22 142 1.6 6.4 0.00 0.00 0.00 66 1007.4
20260505024531 22 139 1.6 4.8 0.00 0.00 0.00 66 1007.3
20260505024032 22 140 1.6 6.4 0.00 0.00 0.00 65 1007.3
20260505023531 22 140 3.2 11.3 0.00 0.00 0.00 65 1007.3
20260505023031 22 134 3.2 11.3 0.00 0.00 0.00 65 1007.3
20260505022531 22 131 1.6 12.9 0.00 0.00 0.00 65 1007.3
20260505022031 22 132 4.8 12.9 0.00 0.00 0.00 64 1007.3
20260505021531 22 184 3.2 9.7 0.00 0.00 0.00 64 1007.2
20260505021031 22 153 3.2 11.3 0.00 0.00 0.00 64 1007.2
20260505020536 23 170 4.8 11.3 0.00 0.00 0.00 64 1007.2
20260505020030 23 172 3.2 8.0 0.00 0.00 0.00 64 1007.3
20260505015530 23 227 1.6 9.7 0.00 0.00 0.00 64 1007.3
20260505015030 23 202 4.8 9.7 0.00 0.00 0.00 63 1007.3
20260505014530 23 129 0.0 6.4 0.00 0.00 0.00 63 1007.2
20260505014030 23 128 1.6 6.4 0.00 0.00 0.00 63 1007.3
20260505013530 23 143 1.6 6.4 0.00 0.00 0.00 63 1007.3
20260505013031 23 140 0.0 12.9 0.00 0.00 0.00 62 1007.3
20260505012531 23 132 3.2 12.9 0.00 0.00 0.00 61 1007.3
20260505012030 23 166 1.6 12.9 0.00 0.00 0.00 61 1007.3
20260505011529 24 192 4.8 9.7 0.00 0.00 0.00 61 1007.5
20260505011028 24 140 1.6 11.3 0.00 0.00 0.00 60 1007.5
20260505010528 25 146 3.2 11.3 0.00 0.00 0.00 60 1007.5
20260505010028 25 130 1.6 9.7 0.00 0.00 0.00 60 1007.5
20260505005532 25 178 4.8 9.7 0.00 0.00 0.00 60 1007.6
20260505005030 24 132 4.8 9.7 0.00 0.00 0.00 61 1007.7
20260505004528 24 212 3.2 9.7 0.00 0.00 0.00 60 1007.7
20260505004027 24 161 3.2 9.7 0.00 0.00 0.00 60 1007.7
20260505003527 24 128 1.6 9.7 0.00 0.00 0.00 60 1007.6
20260505003027 24 162 3.2 11.3 0.00 0.00 0.00 61 1007.6
20260505002527 24 136 3.2 11.3 0.00 0.00 0.00 60 1007.7
20260505002027 24 221 3.2 11.3 0.00 0.00 0.00 60 1007.6
20260505001527 24 153 3.2 14.5 0.00 0.00 0.00 61 1007.7
20260505001026 24 148 6.4 14.5 0.00 0.00 0.00 62 1007.8
20260505000529 23 161 4.8 16.1 0.00 0.00 0.00 62 1007.8
20260505000028 23 136 4.8 11.3 0.00 0.00 0.00 61 1007.9
20260504235526 23 132 3.2 12.9 0.00 0.00 0.00 59 1007.9
20260504235027 24 167 4.8 17.7 0.00 0.00 0.00 60 1007.9
20260504234525 25 140 6.4 17.7 0.00 0.00 0.00 58 1007.9
20260504234026 24 83 0.0 12.9 0.00 0.00 0.00 59 1007.8
20260504233526 24 143 4.8 16.1 0.00 0.00 0.00 60 1007.9
20260504233025 23 182 6.4 16.1 0.00 0.00 0.00 59 1008.0
20260504232527 23 140 3.2 11.3 0.00 0.00 0.00 62 1008.0
20260504232024 23 147 4.8 11.3 0.00 0.00 0.00 59 1008.0
20260504231524 23 198 4.8 11.3 0.00 0.00 0.00 61 1008.1
20260504231024 23 138 3.2 12.9 0.00 0.00 0.00 59 1008.1
20260504230524 24 136 0.0 11.3 0.00 0.00 0.00 59 1008.1
20260504230027 24 117 4.8 11.3 0.00 0.00 0.00 58 1008.2
20260504225526 24 170 3.2 11.3 0.00 0.00 0.00 59 1008.3
20260504225023 23 194 3.2 11.3 0.00 0.00 0.00 59 1008.3
20260504224523 23 126 3.2 12.9 0.00 0.00 0.00 58 1008.4
20260504224024 24 107 6.4 12.9 0.00 0.00 0.00 56 1008.4
20260504223524 25 175 1.6 9.7 0.00 0.00 0.00 57 1008.6
20260504223022 24 296 3.2 6.4 0.00 0.00 0.00 60 1008.5
20260504222522 23 217 1.6 8.0 0.00 0.00 0.00 60 1008.6
20260504222019 23 130 1.6 8.0 0.00 0.00 0.00 60 1008.7
20260504221523 23 129 3.2 12.9 0.00 0.00 0.00 58 1008.8
20260504221018 23 111 1.6 8.0 0.00 0.00 0.00 59 1008.9
20260504220517 23 219 1.6 11.3 0.00 0.00 0.00 59 1009.0
20260504220021 23 211 4.8 11.3 0.00 0.00 0.00 60 1009.0
20260504215516 23 141 3.2 12.9 0.00 0.00 0.00 60 1009.1
20260504215019 23 195 4.8 11.3 0.00 0.00 0.00 62 1009.1
20260504214514 22 158 3.2 9.7 0.00 0.00 0.00 61 1009.1
20260504214012 22 164 1.6 8.0 0.00 0.00 0.00 64 1009.2
20260504213511 21 124 3.2 11.3 0.00 0.00 0.00 62 1009.3
20260504213012 21 136 4.8 12.9 0.00 0.00 0.00 61 1009.3
20260504212511 22 121 3.2 12.9 0.00 0.00 0.00 63 1009.4
20260504212009 21 211 1.6 8.0 0.00 0.00 0.00 65 1009.5
20260504211508 21 134 1.6 12.9 0.00 0.00 0.00 66 1009.6
20260504211008 21 132 4.8 12.9 0.00 0.00 0.00 64 1009.7
20260504210507 21 83 1.6 11.3 0.00 0.00 0.00 64 1009.7
20260504210007 21 121 3.2 11.3 0.00 0.00 0.00 64 1009.8
20260504205509 21 188 3.2 11.3 0.00 0.00 0.00 67 1009.9
20260504205007 20 130 4.8 11.3 0.00 0.00 0.00 64 1010.0
20260504204504 20 132 3.2 9.7 0.00 0.00 0.00 67 1010.1
20260504204004 20 219 3.2 12.9 0.00 0.00 0.00 66 1010.2
20260504203504 20 64 4.8 12.9 0.00 0.00 0.00 65 1010.3
20260504203009 20 149 4.8 9.7 0.00 0.00 0.00 66 1010.2
20260504202505 20 205 3.2 11.3 0.00 0.00 0.00 67 1010.3
20260504202003 19 108 4.8 11.3 0.00 0.00 0.00 67 1010.3
20260504201503 19 121 3.2 11.3 0.00 0.00 0.00 66 1010.4
20260504201002 19 130 1.6 11.3 0.00 0.00 0.00 68 1010.4
20260504200502 18 88 1.6 12.9 0.00 0.00 0.00 68 1010.6